Home > Weather > Hanau > Past weeks

Flag for Germany Past Weather in Hanau, Hesse, Germany — Yesterday and Last 2 Weeks

Now
79 °F

Sunny.


Feels Like: 79 °F
Forecast: 56 / 75 °F
Wind: 14 mph from West

Location: Frankfurt-M-Flughafen Airport

Current Time: Jul 27, 2016 at 5:32:17 PM

Latest Report: Jul 27, 2016 at 4:50 PM


Visibility: 10 mi

Pressure: 30.01 "Hg

Humidity: 42%

Dew Point: 54 °F

Location of HanauLocation

Past Weather in Hanau — Graph

°F

Hanau Temperature Yesterday

Maximum temperature yesterday: 84 °F (at 3:20 PM)
Minimum temperature yesterday: 64 °F (at 1:20 AM)
Average temperature yesterday: 72 °F

High & Low Weather Summary for the Past Weeks

 TemperatureHumidityPressure
High95 °F (Jul 20, 2:50 PM)100% (Jul 22, 4:50 AM)30.30 "Hg (Jul 22, 4:50 AM)
Low50 °F (Jul 16, 2:50 AM)22% (Jul 20, 6:20 PM)29.86 "Hg (Jul 12, 6:50 PM)
Average70 °F68%30.08 "Hg
* Reported Jul 12 4:20 PM — Jul 27 4:20 PM, Hanau, Weather by CustomWeather, © 2016

Note: Actual official high and low records may vary slightly from our data, if they occured in-between our weather recording intervals... More about our weather records

Advertising

Hanau Weather History for the Previous 24 Hours

Scroll right to see more
 ConditionsComfort  
Time TempWeatherWind HumidityBarometerVisibility
4:20 PM
Wed, Jul 27
79 °FSunny.15 mph45%30.01 "Hg10 mi
3:50 PM79 °FPassing clouds.12 mph45%30.01 "HgN/A
3:20 PM77 °FScattered clouds.12 mph44%30.01 "HgN/A
2:50 PM77 °FScattered clouds.13 mph47%30.01 "HgN/A
2:20 PM77 °FScattered clouds.13 mph47%30.01 "HgN/A
1:50 PM77 °FScattered clouds.10 mph51%30.04 "HgN/A
1:20 PM79 °FScattered clouds.13 mph48%30.04 "HgN/A
12:50 PM77 °FScattered clouds.8 mph54%30.04 "HgN/A
12:20 PM75 °FScattered clouds.9 mph57%30.04 "HgN/A
11:50 AM73 °FScattered clouds.7 mph65%30.04 "HgN/A
11:20 AM73 °FScattered clouds.8 mph65%30.04 "HgN/A
10:50 AM73 °FScattered clouds.7 mph65%30.04 "HgN/A
10:20 AM72 °FScattered clouds.6 mph69%30.04 "HgN/A
9:50 AM70 °FPartly sunny.6 mph78%30.07 "HgN/A
9:20 AM68 °FPartly sunny.7 mph83%30.07 "HgN/A
8:50 AM68 °FPartly sunny.6 mph83%30.04 "HgN/A
8:20 AM66 °FSunny.5 mph88%30.04 "Hg10 mi
7:50 AM66 °FSunny.5 mph88%30.04 "Hg10 mi
7:20 AM64 °FBroken clouds.2 mph94%30.04 "HgN/A
6:50 AM64 °FPartly sunny.1 mph94%30.04 "HgN/A
6:20 AM64 °FScattered showers. Passing clouds.2 mph94%30.04 "HgN/A
5:50 AM64 °FScattered showers. Partly cloudy.6 mph94%30.07 "HgN/A
5:20 AM63 °FFog.3 mph94%30.04 "HgN/A
4:50 AM63 °FFog.2 mph94%30.04 "HgN/A
4:20 AM63 °FFog.3 mph94%30.04 "HgN/A
3:50 AM63 °FClear.2 mph94%30.04 "Hg10 mi
3:20 AM64 °FClear.2 mph94%30.04 "Hg10 mi
2:50 AM64 °FPartly cloudy.2 mph94%30.07 "HgN/A
2:20 AM66 °FPartly cloudy.2 mph88%30.07 "HgN/A
1:50 AM66 °FPartly cloudy.1 mph88%30.07 "HgN/A
1:20 AM66 °FPartly cloudy.3 mph88%30.07 "HgN/A
12:50 AM66 °FPartly cloudy.5 mph88%30.07 "HgN/A
12:20 AM68 °FPartly cloudy.2 mph83%30.07 "HgN/A
11:50 PM
Tue, Jul 26
68 °FPartly cloudy.6 mph83%30.07 "HgN/A
11:20 PM68 °FPartly cloudy.6 mph88%30.09 "HgN/A
10:50 PM70 °FPartly cloudy.8 mph83%30.09 "HgN/A
10:20 PM70 °FPartly cloudy.8 mph83%30.07 "HgN/A
9:50 PM72 °FBroken clouds.9 mph78%30.09 "HgN/A
9:20 PM73 °FBroken clouds.10 mph74%30.09 "HgN/A
8:50 PM75 °FBroken clouds.7 mph74%30.07 "HgN/A
8:20 PM75 °FBroken clouds.7 mph69%30.07 "HgN/A
7:50 PM75 °FBroken clouds.6 mph74%30.07 "HgN/A
7:20 PM73 °FBroken clouds.7 mph78%30.07 "HgN/A
6:50 PM75 °FBroken clouds.7 mph65%30.07 "HgN/A
6:20 PM75 °FThundershowers. Broken clouds.8 mph65%30.07 "HgN/A
5:50 PM73 °FThunderstorms. Broken clouds.13 mph65%30.07 "HgN/A
5:20 PM75 °FThunderstorms. Broken clouds.15 mph69%30.07 "HgN/A
Weather by CustomWeather, © 2016

See weather overviewHow to use our weather pages